OneWeb SL0301

operational
NORAD ID: 49090 Int'l Des: 2021-075 Owner: ONEWEBN Country: UK Constellation: oneweb
LEOCIRCULARPOLARONEWEB_TYPE

About OneWeb SL0301

Description loading...

Live Position

Loading 3D Globe...

Upcoming Passes

Altitude History

Altitude vs Time

uPlot chart will show altitude changes over time

Two-Line Element Set

1 49090U 21075R 25258.17652761 .00000506 00000-0 13709-2 0 9997
2 49090 87.8901 45.2926 0001624 80.0071 280.1241 13.12443802198491
Epoch: Sep 15, 2025 • Age: 9 hours

Current Status

Altitude 1216.5 km
Velocity 7.25 km/s
Sub-Earth Point -0.76°S, 150.29°W
Launch Date Aug 21, 2021
Age 4 years
Type internet

Technical Details

Classification Payload
Mass 148.00 kg
Dry Mass 140.00 kg
Total Mass 148.00 kg
Length 1.30 m
Diameter 1.00 m
Span 5.00 m
Shape Trapezoid+2 pan
Manufacturer ONEWUS
Bus Type ARROW
Phase Status In Orbit
Owner/State ONEWEBN/UK

Large Constellations

Loading constellations...